Simultaneous Nadir Overpasses (SNOs) Predictions

Prediction of SNOs between AQUA and GOES-15 Satellite Orbit:

Table of predicted SNOs for the next 14.0 days since TLE Epoch: 3/13/2020
Index Date Time (AQUA) AQUA Lat,Lon GOES-15 Lat,Lon Distance(km) Time Diff (sec)
1 03/15/2020 10:07:30 -0.42,-127.98 -0.33,-128.30 36.69 80
2 03/17/2020 09:55:19 -1.03,-125.03 -0.32,-128.26 368.68 80
3 03/17/2020 22:16:42 -0.12,-130.21 0.31,-128.28 219.12 80
4 03/19/2020 22:04:31 0.49,-127.25 0.31,-128.24 112.86 80
5 03/20/2020 10:25:46 0.62,-132.40 -0.29,-128.21 477.32 80
6 03/21/2020 21:52:20 1.11,-124.29 0.30,-128.21 444.61 80
7 03/22/2020 10:13:36 0.00,-129.45 -0.29,-128.17 145.68 80
8 03/24/2020 10:01:25 -0.62,-126.49 -0.29,-128.13 185.71 80
9 03/24/2020 22:22:48 -0.47,-131.68 0.28,-128.14 402.89 80
10 03/26/2020 22:10:37 0.16,-128.73 0.28,-128.09 71.89 80




NCC Satellite Simultaneous Nadir Overpasses (SNOs) Prediction Service
